NORTHEAST SUFFOLK  -  Winter Storm Watch Winter Storm Watch        NORTHERN NASSAU  -  Winter Storm Watch Winter Storm Watch        NORTHERN QUEENS  -  Winter Storm Watch Winter Storm Watch        NORTHWEST SUFFOLK  -  Winter Storm Watch Winter Storm Watch        SOUTHEAST SUFFOLK  -  Winter Storm Watch Winter Storm Watch        SOUTHERN NASSAU  -  Winter Storm Watch Winter Storm Watch        SOUTHERN QUEENS  -  Winter Storm Watch Winter Storm Watch        SOUTHWEST SUFFOLK  -  Winter Storm Watch Winter Storm Watch      

Active alerts

Northern Queens
  Details for Northern Queens Winter Storm Watch
Southern Queens
  Details for Southern Queens Winter Storm Watch
Northern Nassau
  Details for Northern Nassau Winter Storm Watch
Southern Nassau
  Details for Southern Nassau Winter Storm Watch
Northwest Suffolk
  Details for Northwest Suffolk Winter Storm Watch
Southwest Suffolk
  Details for Southwest Suffolk Winter Storm Watch
Northeast Suffolk
  Details for Northeast Suffolk Winter Storm Watch
Southeast Suffolk
  Details for Southeast Suffolk Winter Storm Watch


WXM80 ListenWXM80 Stop

You find our weather info also at:

UK Metoffice

WeatherCloud

Weather Underground

Northeastern Weather Network

AWEKAS

Citizen Weather Observer Program (CWOP)

HAMweather, WeatherForYou, PWS Weather


Weather Underground History page Text

Daily Summary for October 5, 2017 Units:  English    Metric   Both
« Previous Day
Next Day »
Daily Weekly Monthly Yearly Custom
  High: Low: Average:
Temperature: 84.6 °F 63.7 °F 72.5 °F
Dew Point: 69.1 °F 58.8 °F 63.4 °F
Humidity: 87 % 54 % 74 %
Wind Speed: 5.8 mph 0.0 mph 1.8 mph
Wind Gust: 11.5 mph - -
Wind:- - SW
Pressure: 30.15 in 29.90 in -
Precipitation: 0.00 in    
Historical Graphs
 
 
Tabular Data for October 5, 2017
Time Temperature Dew Point Pressure Wind Wind Speed Wind Gust Humidity Rainfall Rate (Hourly)
00:02 64.5 °F 60.2 °F 30.15 in SW 3.7 mph 11.5 mph 86 % 0.00 in
00:07 64.6 °F 60.0 °F 30.15 in SW 1.2 mph 3.0 mph 85 % 0.00 in
00:12 64.6 °F 60.0 °F 30.15 in WSW 3.0 mph 4.0 mph 85 % 0.00 in
00:17 64.6 °F 60.0 °F 30.15 in South 0.3 mph 3.5 mph 85 % 0.00 in
00:22 64.6 °F 59.7 °F 30.15 in SW 2.0 mph 7.0 mph 84 % 0.00 in
00:27 64.6 °F 59.7 °F 30.15 in West 1.8 mph 8.0 mph 84 % 0.00 in
00:32 64.6 °F 59.7 °F 30.15 in SSW 2.8 mph 8.1 mph 84 % 0.00 in
00:37 64.6 °F 59.7 °F 30.14 in SW 4.2 mph 4.6 mph 84 % 0.00 in
00:43 64.6 °F 59.7 °F 30.14 in SSW 2.0 mph 4.6 mph 84 % 0.00 in
00:48 64.6 °F 59.7 °F 30.14 in SSW 2.8 mph 4.0 mph 84 % 0.00 in
00:53 64.5 °F 59.6 °F 30.14 in SSW 4.6 mph 6.9 mph 84 % 0.00 in
00:58 64.5 °F 59.2 °F 30.14 in SSW 2.2 mph 6.9 mph 83 % 0.00 in
01:03 64.5 °F 59.2 °F 30.14 in SSW 2.1 mph 6.9 mph 83 % 0.00 in
01:08 64.5 °F 59.2 °F 30.14 in SW 3.3 mph 8.1 mph 83 % 0.00 in
01:13 64.5 °F 59.2 °F 30.14 in SW 3.7 mph 9.2 mph 83 % 0.00 in
01:18 64.5 °F 59.2 °F 30.14 in SSW 1.0 mph 4.6 mph 83 % 0.00 in
01:23 64.5 °F 59.2 °F 30.14 in SW 0.3 mph 2.3 mph 83 % 0.00 in
01:28 64.5 °F 59.2 °F 30.13 in SW 1.6 mph 3.5 mph 83 % 0.00 in
01:33 64.5 °F 59.2 °F 30.13 in SSW 1.3 mph 4.6 mph 83 % 0.00 in
01:35 64.5 °F 59.2 °F 30.13 in West 0.9 mph 6.9 mph 83 % 0.00 in
01:40 64.4 °F 59.1 °F 30.13 in WSW 0.5 mph 2.3 mph 83 % 0.00 in
01:45 64.4 °F 59.1 °F 30.13 in SW 1.6 mph 3.5 mph 83 % 0.00 in
01:50 64.4 °F 59.1 °F 30.13 in SW 0.9 mph 2.3 mph 83 % 0.00 in
01:55 64.3 °F 59.4 °F 30.13 in SW 1.3 mph 4.0 mph 84 % 0.00 in
02:01 64.3 °F 59.4 °F 30.13 in SSE 0.1 mph 2.3 mph 84 % 0.00 in
02:06 64.3 °F 59.0 °F 30.13 in SW 0.4 mph 3.5 mph 83 % 0.00 in
02:11 64.2 °F 59.3 °F 30.13 in WSW 2.3 mph 9.2 mph 84 % 0.00 in
02:16 64.2 °F 59.3 °F 30.12 in SW 2.0 mph 3.5 mph 84 % 0.00 in
02:21 64.2 °F 58.9 °F 30.13 in SW 4.2 mph 8.1 mph 83 % 0.00 in
02:26 64.3 °F 59.0 °F 30.13 in WSW 0.5 mph 6.0 mph 83 % 0.00 in
02:31 64.4 °F 59.1 °F 30.13 in SW 0.3 mph 2.3 mph 83 % 0.00 in
02:36 64.5 °F 59.2 °F 30.13 in SW 1.9 mph 5.0 mph 83 % 0.00 in
02:41 64.6 °F 59.3 °F 30.12 in WSW 2.7 mph 6.9 mph 83 % 0.00 in
02:46 64.7 °F 59.1 °F 30.12 in SSW 2.3 mph 8.1 mph 82 % 0.00 in
02:51 64.8 °F 59.2 °F 30.12 in SW 1.5 mph 4.0 mph 82 % 0.00 in
02:56 64.9 °F 59.3 °F 30.12 in South 1.7 mph 4.6 mph 82 % 0.00 in
03:01 65.1 °F 59.5 °F 30.11 in SSW 2.5 mph 6.9 mph 82 % 0.00 in
03:06 65.2 °F 59.2 °F 30.11 in SSW 5.8 mph 8.1 mph 81 % 0.00 in
03:11 65.2 °F 59.2 °F 30.11 in WSW 2.1 mph 11.5 mph 81 % 0.00 in
03:16 65.3 °F 59.3 °F 30.11 in SSW 5.1 mph 5.8 mph 81 % 0.00 in
03:21 65.3 °F 59.3 °F 30.10 in SSW 4.5 mph 6.9 mph 81 % 0.00 in
03:26 65.4 °F 59.4 °F 30.10 in WSW 3.2 mph 5.8 mph 81 % 0.00 in
03:31 65.4 °F 59.4 °F 30.10 in SSW 4.5 mph 9.2 mph 81 % 0.00 in
03:37 65.5 °F 59.2 °F 30.10 in SW 3.7 mph 11.5 mph 80 % 0.00 in
03:47 65.6 °F 59.3 °F 30.10 in SSW 2.7 mph 4.0 mph 80 % 0.00 in
03:52 65.6 °F 59.6 °F 30.10 in SW 2.9 mph 5.8 mph 81 % 0.00 in
04:02 65.7 °F 59.4 °F 30.10 in WSW 2.7 mph 9.2 mph 80 % 0.00 in
04:07 65.7 °F 59.4 °F 30.10 in Calm   1.2 mph 80 % 0.00 in
04:12 65.7 °F 59.7 °F 30.10 in SSW 0.3 mph 6.9 mph 81 % 0.00 in
04:17 65.7 °F 59.4 °F 30.09 in WSW 2.0 mph 7.0 mph 80 % 0.00 in
04:22 65.7 °F 59.7 °F 30.09 in Calm     81 % 0.00 in
04:27 65.6 °F 59.3 °F 30.09 in SW 2.6 mph 4.6 mph 80 % 0.00 in
04:32 65.6 °F 59.6 °F 30.09 in SW 2.7 mph 5.8 mph 81 % 0.00 in
04:37 65.6 °F 59.6 °F 30.10 in WSW 0.1 mph 2.0 mph 81 % 0.00 in
04:42 65.6 °F 59.6 °F 30.09 in SSW 2.9 mph 4.6 mph 81 % 0.00 in
04:47 65.5 °F 59.5 °F 30.09 in WSW 0.2 mph 1.2 mph 81 % 0.00 in
04:52 65.4 °F 59.4 °F 30.09 in SW 3.9 mph 5.8 mph 81 % 0.00 in
04:57 65.4 °F 59.4 °F 30.09 in SW 0.8 mph 3.5 mph 81 % 0.00 in
05:02 65.3 °F 59.3 °F 30.09 in Calm   1.2 mph 81 % 0.00 in
05:07 65.2 °F 59.2 °F 30.09 in SW 0.4 mph 2.0 mph 81 % 0.00 in
05:12 65.2 °F 59.2 °F 30.09 in Calm   2.3 mph 81 % 0.00 in
05:17 65.1 °F 59.5 °F 30.10 in Calm     82 % 0.00 in
05:22 65.0 °F 59.4 °F 30.10 in Calm     82 % 0.00 in
05:32 64.8 °F 59.2 °F 30.10 in Calm     82 % 0.00 in
05:37 64.7 °F 59.1 °F 30.10 in Calm   1.2 mph 82 % 0.00 in
05:43 64.5 °F 58.9 °F 30.10 in South 0.1 mph   82 % 0.00 in
05:48 64.5 °F 59.2 °F 30.10 in Calm   1.2 mph 83 % 0.00 in
05:53 64.4 °F 59.1 °F 30.10 in SSW 0.1 mph 1.2 mph 83 % 0.00 in
05:58 64.2 °F 58.9 °F 30.10 in Calm     83 % 0.00 in
06:03 64.1 °F 58.8 °F 30.10 in SSW 0.1 mph 1.2 mph 83 % 0.00 in
06:08 64.0 °F 59.1 °F 30.10 in SW 1.1 mph 2.3 mph 84 % 0.00 in
06:13 63.9 °F 59.0 °F 30.10 in WSW 1.0 mph 6.9 mph 84 % 0.00 in
06:23 63.8 °F 59.2 °F 30.10 in SW 2.5 mph 3.5 mph 85 % 0.00 in
06:28 63.7 °F 59.1 °F 30.10 in SW 0.8 mph 2.3 mph 85 % 0.00 in
06:33 63.7 °F 59.1 °F 30.11 in SSW 2.9 mph 4.6 mph 85 % 0.00 in
06:38 63.7 °F 59.1 °F 30.11 in WSW 2.4 mph 3.5 mph 85 % 0.00 in
06:43 63.7 °F 59.4 °F 30.11 in WSW 2.6 mph 5.8 mph 86 % 0.00 in
06:48 63.7 °F 59.4 °F 30.11 in WSW 2.3 mph 5.8 mph 86 % 0.00 in
06:53 63.7 °F 59.4 °F 30.10 in SW 3.5 mph 8.1 mph 86 % 0.00 in
06:58 63.7 °F 59.4 °F 30.11 in WSW 3.0 mph 4.6 mph 86 % 0.00 in
07:03 63.7 °F 59.4 °F 30.11 in WSW 3.2 mph 5.8 mph 86 % 0.00 in
07:08 63.8 °F 59.5 °F 30.12 in SW 3.5 mph 5.8 mph 86 % 0.00 in
07:13 63.8 °F 59.5 °F 30.11 in SW 2.1 mph 3.5 mph 86 % 0.00 in
07:18 63.8 °F 59.5 °F 30.11 in SSW 2.3 mph 5.8 mph 86 % 0.00 in
07:28 63.9 °F 59.6 °F 30.11 in WSW 1.4 mph 3.5 mph 86 % 0.00 in
07:33 63.9 °F 59.6 °F 30.11 in WSW 2.2 mph 3.5 mph 86 % 0.00 in
07:34 63.8 °F 59.5 °F 30.11 in WSW 1.7 mph 3.5 mph 86 % 0.00 in
07:39 63.9 °F 59.6 °F 30.11 in SW 1.4 mph 3.5 mph 86 % 0.00 in
07:44 63.9 °F 60.0 °F 30.11 in WSW 4.4 mph 6.9 mph 87 % 0.00 in
07:51 64.0 °F 60.1 °F 30.11 in SW 2.8 mph 9.2 mph 87 % 0.00 in
07:56 64.0 °F 60.1 °F 30.11 in SSW 3.8 mph 4.6 mph 87 % 0.00 in
08:00 64.2 °F 60.2 °F 30.11 in SW 3.5 mph 4.6 mph 87 % 0.00 in
08:05 64.4 °F 60.4 °F 30.12 in WSW 3.0 mph 5.8 mph 87 % 0.00 in
08:11 64.6 °F 60.3 °F 30.12 in SW 2.0 mph 6.0 mph 86 % 0.00 in
08:16 64.7 °F 60.5 °F 30.12 in SW 2.0 mph 7.0 mph 86 % 0.00 in
08:21 64.9 °F 60.6 °F 30.12 in SW 3.0 mph 7.0 mph 86 % 0.00 in
08:26 65.0 °F 60.4 °F 30.11 in SSW 1.1 mph 2.3 mph 85 % 0.00 in
08:31 65.2 °F 60.6 °F 30.11 in SW 1.0 mph 5.0 mph 85 % 0.00 in
08:36 65.3 °F 60.7 °F 30.11 in SW 1.0 mph 3.0 mph 85 % 0.00 in
08:41 65.4 °F 60.8 °F 30.11 in Calm   2.0 mph 85 % 0.00 in
08:46 65.6 °F 60.9 °F 30.11 in SW 3.0 mph 7.0 mph 85 % 0.00 in
08:51 65.6 °F 60.6 °F 30.11 in SW 1.7 mph 3.5 mph 84 % 0.00 in
08:56 65.7 °F 60.7 °F 30.12 in SW 2.0 mph 8.0 mph 84 % 0.00 in
09:01 65.8 °F 60.8 °F 30.11 in West 0.5 mph 4.6 mph 84 % 0.00 in
09:06 65.9 °F 61.3 °F 30.12 in SW 1.2 mph 2.3 mph 85 % 0.00 in
09:11 66.0 °F 61.4 °F 30.11 in SW 3.0 mph 4.6 mph 85 % 0.00 in
09:16 66.1 °F 61.5 °F 30.11 in SW 2.7 mph 5.8 mph 85 % 0.00 in
09:26 66.5 °F 61.5 °F 30.11 in WSW 2.2 mph 7.0 mph 84 % 0.00 in
09:31 66.7 °F 61.4 °F 30.11 in WSW 2.7 mph 6.0 mph 83 % 0.00 in
09:36 66.9 °F 61.6 °F 30.11 in SW 2.5 mph 5.8 mph 83 % 0.00 in
09:41 67.2 °F 61.5 °F 30.10 in WSW 3.3 mph 4.6 mph 82 % 0.00 in
09:46 67.4 °F 61.7 °F 30.10 in SSW 3.0 mph 4.0 mph 82 % 0.00 in
09:51 67.6 °F 61.9 °F 30.10 in WSW 3.8 mph 6.9 mph 82 % 0.00 in
10:01 68.1 °F 62.0 °F 30.11 in SSW 2.7 mph 7.0 mph 81 % 0.00 in
10:06 68.4 °F 62.3 °F 30.10 in SSW 5.0 mph 5.8 mph 81 % 0.00 in
10:11 68.8 °F 62.4 °F 30.10 in SW 3.8 mph 5.0 mph 80 % 0.00 in
10:16 69.3 °F 62.9 °F 30.11 in SSW 2.8 mph 4.6 mph 80 % 0.00 in
10:21 69.8 °F 63.0 °F 30.11 in West 1.5 mph 3.5 mph 79 % 0.00 in
10:26 70.2 °F 63.0 °F 30.11 in WNW 2.8 mph 4.6 mph 78 % 0.00 in
10:31 70.6 °F 62.7 °F 30.10 in WNW 1.5 mph 3.5 mph 76 % 0.00 in
10:36 70.9 °F 63.0 °F 30.10 in SW 3.1 mph 6.9 mph 76 % 0.00 in
10:41 71.2 °F 63.2 °F 30.09 in WSW 2.9 mph 4.6 mph 76 % 0.00 in
10:46 71.5 °F 63.5 °F 30.10 in West 1.1 mph 3.5 mph 76 % 0.00 in
10:51 71.8 °F 63.4 °F 30.09 in WNW 2.2 mph 4.6 mph 75 % 0.00 in
10:57 72.1 °F 63.4 °F 30.09 in WSW 0.4 mph 4.6 mph 74 % 0.00 in
11:02 72.7 °F 64.7 °F 30.09 in WSW 2.3 mph 3.5 mph 76 % 0.00 in
11:07 73.3 °F 64.9 °F 30.09 in WNW 1.1 mph 3.5 mph 75 % 0.00 in
11:10 73.7 °F 66.0 °F 30.09 in WNW 0.5 mph 3.5 mph 77 % 0.00 in
11:13 74.3 °F 65.1 °F 30.08 in SW 0.6 mph 3.5 mph 73 % 0.00 in
11:18 75.2 °F 65.9 °F 30.08 in West 0.8 mph 3.0 mph 73 % 0.00 in
11:23 76.2 °F 66.5 °F 30.08 in West 2.6 mph 6.0 mph 72 % 0.00 in
11:28 77.1 °F 66.1 °F 30.08 in NW 3.1 mph 4.0 mph 69 % 0.00 in
11:33 78.0 °F 65.7 °F 30.07 in West 1.1 mph 3.5 mph 66 % 0.00 in
11:38 78.6 °F 65.4 °F 30.07 in WNW 1.7 mph 3.5 mph 64 % 0.00 in
11:44 79.2 °F 66.4 °F 30.06 in WNW 0.7 mph 3.5 mph 65 % 0.00 in
11:49 79.8 °F 66.1 °F 30.06 in West 0.7 mph 6.9 mph 63 % 0.00 in
11:54 80.4 °F 66.2 °F 30.06 in SSE 1.3 mph 3.5 mph 62 % 0.00 in
11:59 81.3 °F 67.0 °F 30.06 in SE 0.2 mph 3.5 mph 62 % 0.00 in
12:04 82.2 °F 67.4 °F 30.06 in WSW 2.8 mph 6.9 mph 61 % 0.00 in
12:09 82.7 °F 65.9 °F 30.06 in SW 2.0 mph 3.5 mph 57 % 0.00 in
12:14 83.2 °F 67.4 °F 30.07 in WSW 0.9 mph 3.5 mph 59 % 0.00 in
12:19 83.8 °F 68.4 °F 30.07 in NW 1.0 mph 4.6 mph 60 % 0.00 in
12:24 84.0 °F 69.1 °F 30.06 in NNW 3.2 mph 5.8 mph 61 % 0.00 in
12:29 83.9 °F 68.5 °F 30.07 in NNW 0.8 mph 3.5 mph 60 % 0.00 in
12:34 84.0 °F 67.6 °F 30.06 in NNW 1.3 mph 3.5 mph 58 % 0.00 in
12:39 84.1 °F 68.2 °F 30.06 in West 0.8 mph 2.3 mph 59 % 0.00 in
12:44 84.2 °F 67.3 °F 30.05 in NW 0.9 mph 3.0 mph 57 % 0.00 in
12:49 84.3 °F 66.4 °F 30.05 in WNW 3.6 mph 5.0 mph 55 % 0.00 in
12:59 84.3 °F 66.4 °F 30.04 in West 3.1 mph 4.6 mph 55 % 0.00 in
13:04 84.4 °F 68.0 °F 30.04 in WSW 2.3 mph 3.5 mph 58 % 0.00 in
13:14 84.6 °F 66.1 °F 30.04 in West 2.6 mph 4.0 mph 54 % 0.00 in
13:19 84.5 °F 66.6 °F 30.04 in WNW 0.5 mph 1.2 mph 55 % 0.00 in
13:24 84.3 °F 67.4 °F 30.03 in WNW 1.0 mph 2.3 mph 57 % 0.00 in
13:30 84.1 °F 66.7 °F 30.03 in SW 2.5 mph 6.9 mph 56 % 0.00 in
13:35 83.8 °F 67.9 °F 30.03 in West 0.1 mph 2.3 mph 59 % 0.00 in
13:40 83.6 °F 67.3 °F 30.03 in WNW 1.6 mph 3.5 mph 58 % 0.00 in
13:45 83.3 °F 67.5 °F 30.03 in West 2.9 mph 4.6 mph 59 % 0.00 in
13:50 83.0 °F 67.2 °F 30.03 in West 2.8 mph 3.5 mph 59 % 0.00 in
13:55 82.8 °F 67.0 °F 30.02 in WNW 2.0 mph 4.6 mph 59 % 0.00 in
14:00 82.5 °F 66.7 °F 30.02 in Calm   1.2 mph 59 % 0.00 in
14:05 82.3 °F 66.5 °F 30.02 in WNW 0.7 mph 3.5 mph 59 % 0.00 in
14:10 82.3 °F 66.5 °F 30.02 in SW 3.9 mph 6.9 mph 59 % 0.00 in
14:15 82.4 °F 67.1 °F 30.02 in WSW 5.5 mph 9.2 mph 60 % 0.00 in
14:16 82.4 °F 67.1 °F 30.02 in WNW 3.7 mph 9.2 mph 60 % 0.00 in
14:21 82.6 °F 66.8 °F 30.02 in WSW 5.0 mph 6.9 mph 59 % 0.00 in
14:26 82.9 °F 66.6 °F 30.02 in WSW 4.0 mph 8.1 mph 58 % 0.00 in
14:31 83.1 °F 66.3 °F 30.02 in SW 3.3 mph 11.5 mph 57 % 0.00 in
14:36 83.3 °F 66.0 °F 30.01 in SSW 4.0 mph 5.8 mph 56 % 0.00 in
14:41 83.4 °F 66.6 °F 30.01 in WSW 4.8 mph 6.0 mph 57 % 0.00 in
14:46 83.5 °F 66.7 °F 30.01 in West 3.1 mph 5.8 mph 57 % 0.00 in
14:51 83.6 °F 67.3 °F 30.01 in West 2.9 mph 3.5 mph 58 % 0.00 in
14:56 83.6 °F 66.8 °F 30.01 in WSW 3.1 mph 7.0 mph 57 % 0.00 in
15:01 83.6 °F 66.8 °F 30.01 in WSW 0.1 mph 1.2 mph 57 % 0.00 in
15:06 83.7 °F 68.3 °F 30.01 in SSW 1.9 mph 3.5 mph 60 % 0.00 in
15:11 83.8 °F 66.9 °F 30.00 in West 1.0 mph 6.9 mph 57 % 0.00 in
15:16 83.9 °F 67.0 °F 30.01 in SW 2.0 mph 6.9 mph 57 % 0.00 in
15:21 83.8 °F 66.9 °F 30.01 in SW 3.1 mph 5.8 mph 57 % 0.00 in
15:26 83.6 °F 67.3 °F 30.00 in SSW 0.1 mph 2.3 mph 58 % 0.00 in
15:36 83.2 °F 66.9 °F 30.00 in WSW 1.0 mph 6.9 mph 58 % 0.00 in
15:41 82.9 °F 67.1 °F 30.00 in SSW 1.9 mph 3.5 mph 59 % 0.00 in
15:47 82.7 °F 66.9 °F 30.00 in South 1.8 mph 3.5 mph 59 % 0.00 in
15:52 82.5 °F 66.7 °F 29.99 in SW 1.3 mph 3.5 mph 59 % 0.00 in
15:57 82.3 °F 67.5 °F 30.00 in South 2.5 mph 3.5 mph 61 % 0.00 in
16:02 82.2 °F 66.9 °F 29.99 in WSW 0.4 mph 2.3 mph 60 % 0.00 in
16:07 82.0 °F 66.7 °F 29.99 in SW 0.4 mph 3.5 mph 60 % 0.00 in
16:12 81.9 °F 67.1 °F 29.99 in SW 2.3 mph 4.6 mph 61 % 0.00 in
16:17 81.8 °F 67.0 °F 29.99 in WSW 1.1 mph 3.5 mph 61 % 0.00 in
16:22 81.6 °F 67.3 °F 29.99 in WSW 0.1 mph 1.2 mph 62 % 0.00 in
16:27 81.4 °F 67.1 °F 29.99 in WSW 1.1 mph 3.5 mph 62 % 0.00 in
16:32 81.3 °F 67.0 °F 29.99 in WSW 0.4 mph 1.2 mph 62 % 0.00 in
16:37 81.2 °F 67.4 °F 29.99 in Calm   1.2 mph 63 % 0.00 in
16:42 81.1 °F 67.3 °F 29.99 in SW 1.9 mph 4.6 mph 63 % 0.00 in
16:47 81.0 °F 67.2 °F 29.99 in WSW 0.6 mph 5.8 mph 63 % 0.00 in
16:52 80.9 °F 67.1 °F 29.99 in Calm   1.2 mph 63 % 0.00 in
16:57 80.8 °F 67.5 °F 29.99 in SW 0.2 mph 1.2 mph 64 % 0.00 in
17:02 80.7 °F 66.9 °F 29.99 in WSW 0.1 mph 1.2 mph 63 % 0.00 in
17:07 80.5 °F 66.7 °F 29.99 in Calm     63 % 0.00 in
17:12 80.4 °F 67.1 °F 29.99 in SW 0.4 mph 3.5 mph 64 % 0.00 in
17:17 80.2 °F 66.9 °F 29.99 in Calm     64 % 0.00 in
17:27 79.9 °F 67.1 °F 29.99 in Calm   1.2 mph 65 % 0.00 in
17:32 79.7 °F 66.9 °F 29.98 in Calm   1.0 mph 65 % 0.00 in
17:37 79.6 °F 67.2 °F 29.99 in SW 0.1 mph 1.2 mph 66 % 0.00 in
17:42 79.4 °F 67.0 °F 29.99 in SW 0.1 mph 1.2 mph 66 % 0.00 in
17:47 79.2 °F 67.3 °F 29.99 in Calm   1.2 mph 67 % 0.00 in
17:52 78.9 °F 67.4 °F 29.99 in Calm     68 % 0.00 in
17:57 78.7 °F 67.2 °F 29.98 in SW 0.2 mph 2.3 mph 68 % 0.00 in
18:02 78.5 °F 67.5 °F 29.98 in SSW 0.4 mph 4.0 mph 69 % 0.00 in
18:07 78.2 °F 67.2 °F 29.98 in SSW 0.6 mph 1.2 mph 69 % 0.00 in
18:12 77.9 °F 67.3 °F 29.99 in SSW 1.7 mph 4.0 mph 70 % 0.00 in
18:17 77.6 °F 67.0 °F 29.98 in SSW 0.8 mph 3.5 mph 70 % 0.00 in
18:22 77.4 °F 66.8 °F 29.98 in SSW 0.4 mph 3.5 mph 70 % 0.00 in
18:27 77.1 °F 66.6 °F 29.98 in Calm   1.2 mph 70 % 0.00 in
18:32 77.0 °F 66.9 °F 29.98 in SSW 0.4 mph 2.0 mph 71 % 0.00 in
18:37 76.7 °F 66.6 °F 29.98 in SW 0.4 mph 3.5 mph 71 % 0.00 in
18:42 76.5 °F 66.4 °F 29.98 in SSW 2.8 mph 5.8 mph 71 % 0.00 in
18:47 76.3 °F 66.6 °F 29.98 in SSW 1.2 mph 3.0 mph 72 % 0.00 in
18:52 76.1 °F 66.4 °F 29.98 in SSW 0.6 mph 1.2 mph 72 % 0.00 in
18:57 75.9 °F 66.6 °F 29.98 in SSW 2.5 mph 3.5 mph 73 % 0.00 in
19:02 75.8 °F 66.5 °F 29.98 in SSW 1.1 mph 2.3 mph 73 % 0.00 in
19:07 75.6 °F 66.3 °F 29.98 in SSW 1.6 mph 3.0 mph 73 % 0.00 in
19:12 75.3 °F 66.4 °F 29.99 in SSW 1.2 mph 2.3 mph 74 % 0.00 in
19:18 75.2 °F 66.3 °F 29.99 in West 0.4 mph 3.5 mph 74 % 0.00 in
19:23 75.1 °F 66.2 °F 29.99 in SW 1.6 mph 5.8 mph 74 % 0.00 in
19:33 74.9 °F 66.1 °F 29.99 in SSW 0.3 mph 2.0 mph 74 % 0.00 in
19:38 74.8 °F 66.0 °F 29.99 in SW 1.0 mph 3.5 mph 74 % 0.00 in
19:43 74.7 °F 65.9 °F 29.99 in WSW 1.7 mph 3.5 mph 74 % 0.00 in
19:48 74.6 °F 66.1 °F 29.99 in SW 0.3 mph 2.0 mph 75 % 0.00 in
19:53 74.6 °F 66.1 °F 29.99 in SW 0.5 mph 2.3 mph 75 % 0.00 in
19:58 74.5 °F 66.1 °F 29.99 in SW 0.2 mph 2.3 mph 75 % 0.00 in
20:03 74.4 °F 66.0 °F 30.00 in SW 0.7 mph 2.3 mph 75 % 0.00 in
20:08 74.4 °F 66.0 °F 29.99 in SW 0.3 mph 3.5 mph 75 % 0.00 in
20:13 74.3 °F 65.5 °F 30.00 in South 0.2 mph 2.3 mph 74 % 0.00 in
20:18 74.3 °F 65.5 °F 30.00 in Calm   1.2 mph 74 % 0.00 in
20:23 74.2 °F 65.4 °F 29.99 in SSE 2.6 mph 5.8 mph 74 % 0.00 in
20:28 74.2 °F 65.0 °F 29.99 in SW 1.1 mph 4.6 mph 73 % 0.00 in
20:39 74.2 °F 65.0 °F 30.00 in SW 1.4 mph 3.5 mph 73 % 0.00 in
20:44 74.2 °F 64.6 °F 30.00 in WSW 1.7 mph 4.6 mph 72 % 0.00 in
20:49 74.3 °F 64.7 °F 30.00 in SW 4.1 mph 8.1 mph 72 % 0.00 in
20:54 74.4 °F 64.8 °F 30.00 in WSW 2.0 mph 4.6 mph 72 % 0.00 in
20:59 74.4 °F 64.8 °F 30.00 in SW 2.4 mph 6.9 mph 72 % 0.00 in
21:04 74.5 °F 64.5 °F 30.00 in SSW 0.6 mph 3.5 mph 71 % 0.00 in
21:09 74.6 °F 65.0 °F 30.01 in SW 0.2 mph 2.3 mph 72 % 0.00 in
21:29 74.6 °F 64.6 °F 30.01 in South 1.5 mph 5.8 mph 71 % 0.00 in
21:34 74.6 °F 64.6 °F 30.01 in WSW 1.8 mph 6.9 mph 71 % 0.00 in
21:39 74.6 °F 64.6 °F 30.01 in WSW 4.3 mph 6.9 mph 71 % 0.00 in
21:44 74.6 °F 64.2 °F 30.01 in SSW 3.7 mph 6.9 mph 70 % 0.00 in
21:49 74.6 °F 64.6 °F 30.01 in WSW 1.3 mph 3.0 mph 71 % 0.00 in
22:04 74.6 °F 64.2 °F 30.01 in WSW 3.2 mph 6.0 mph 70 % 0.00 in
22:09 74.6 °F 64.6 °F 30.01 in SW 1.7 mph 3.5 mph 71 % 0.00 in
22:14 74.6 °F 64.6 °F 30.01 in SSW 0.8 mph 3.5 mph 71 % 0.00 in
22:19 74.6 °F 64.6 °F 30.01 in SW 4.2 mph 5.8 mph 71 % 0.00 in
22:24 74.6 °F 64.6 °F 30.01 in SW 3.8 mph 5.8 mph 71 % 0.00 in
22:29 74.5 °F 64.5 °F 30.01 in WSW 3.8 mph 9.2 mph 71 % 0.00 in
22:34 74.5 °F 64.5 °F 30.01 in SW 1.7 mph 3.5 mph 71 % 0.00 in
22:39 74.4 °F 64.4 °F 30.01 in WSW 0.3 mph 2.3 mph 71 % 0.00 in
22:44 74.4 °F 64.4 °F 30.01 in SW 1.4 mph 3.5 mph 71 % 0.00 in
22:49 74.3 °F 64.3 °F 30.01 in SW 3.1 mph 6.9 mph 71 % 0.00 in
22:59 74.2 °F 64.6 °F 30.01 in WSW 3.0 mph 4.0 mph 72 % 0.00 in
23:04 74.2 °F 64.6 °F 30.01 in SSW 3.7 mph 5.8 mph 72 % 0.00 in
23:09 74.1 °F 64.9 °F 30.01 in SSW 1.4 mph 4.6 mph 73 % 0.00 in
23:15 74.0 °F 65.2 °F 30.02 in SW 2.4 mph 5.8 mph 74 % 0.00 in
23:20 74.0 °F 66.0 °F 30.02 in WSW 3.5 mph 6.0 mph 76 % 0.00 in
23:23 73.9 °F 65.9 °F 29.90 in WSW 0.7 mph 6.9 mph 76 % 0.00 in
23:25 73.8 °F 65.8 °F 30.02 in SW 1.9 mph 4.0 mph 76 % 0.00 in
23:26 73.8 °F 65.8 °F 30.02 in WSW 2.6 mph 6.0 mph 76 % 0.00 in
23:31 73.7 °F 66.0 °F 30.02 in WSW 2.0 mph 5.0 mph 77 % 0.00 in
23:41 73.3 °F 66.0 °F 30.02 in Calm   2.0 mph 78 % 0.00 in
23:46 73.1 °F 66.2 °F 30.02 in SW 1.0 mph 4.0 mph 79 % 0.00 in
23:51 72.9 °F 66.3 °F 30.02 in Calm   4.0 mph 80 % 0.00 in
23:56 72.6 °F 66.1 °F 30.02 in WSW 1.0 mph 5.0 mph 80 % 0.00 in
Crab Meadow Weather
Compliments of Weather Underground - 2.75 mb

Script developed by  Jim McMurry - jmcmurry@mwt.net Adapted for the template by  Wim van der Kuil - Leuven-Template.eu

Extremes: The most widespread U.S. cold wave was in February of 1899. It was so cold that the Mississippi River froze over its entire length, with ice as thick as two inches even in New Orleans.